Location: Bratsk-Energetik
(56.3300°N, 101.7600°E)
Time: 23:54:07
(UTC+08:00)

ISS - Pass Details

Date: 08 May 2021
Orbit: 417 x 422 km, 51.6° (Epoch: 13 June)

Event Time Altitude Azimuth Distance (km) Brightness Sun altitude
Exits shadow 02:36:28 24° 164° (SSE) 919 -2.5 -14.4°
Maximum altitude 02:36:37 24° 159° (SSE) 916 -2.5 -14.4°
Drops below altitude 10° 02:39:25 10° 103° (ESE) 1,510 -0.8 -14.2°
Sets 02:41:46 0° 89° (E) 2,377 0.4 -14.1°
